sat.trackr.live / text

‹ back to catalog

STARLINK-36496

NORAD 67329 · 2026-002AA

PAYLOAD ACTIVE UNKNOWN

§ Identity

Operator
Country
US
Launch date
2026-01-04
Launch site
AFETR
Launch vehicle
Mass (kg)
RCS (m²)

Purposes: comms

External: N2YO · Heavens-Above · Gunter

§ Orbital elements

Epoch: 2026-05-25T00:36:01.628640Z

Period
94.27 min
Inclination
43.0005°
Eccentricity
0.0002435
Mean motion
15.27583562 rev/d
Perigee alt
481.4 km
Apogee alt
484.7 km
Semi-major
6,861.2 km
B*
9.4478e-4
RAAN
254.1464°
Arg perigee
278.6966°
Mean anomaly
81.3610°
Rev number
2,273

§ Raw data

STARLINK-364961 67329U 26002AA  26145.02501885  .00025831  00000+0  94478-3 0  99972 67329  43.0005 254.1464 0002435 278.6966  81.3610 15.27583562 22732

JSON: /api/v1/satellites/67329 · /tle

For live sub-satellite position, see the globe view (requires WebGL).

§ Visibility from observer

Set your observer location to see the next 7 days of passes ≥ 10°. The values pass through the URL so the page stays shareable.

No JS? Fill the form by hand. The geolocation button needs JavaScript.